Location: Palomar Mountain Lodge
(33.3110°N, 116.8495°W)
Time: 05:02:20
(UTC-07:00)

Tiangong - Pass Details

Date: 17 February 2026
Orbit: 381 x 391 km, 41.5° (Epoch: 8 March)

Event Time Altitude Azimuth Distance (km) Brightness Sun altitude
Rises 19:26:23 0° 302° (WNW) 2,247 2.7 -24.1°
Reaches altitude 10° 19:28:35 10° 312° (NW) 1,391 1.3 -24.5°
Enters shadow 19:29:34 17° 323° (NW) 1,042 0.4 -24.7°
